"America/Chicago Time","Lifetime Energy (kWh)","Power (W)","AC Volts RMS (V) ","AC Amps RMS (mA)","Grid Frequency (Hz)","Inverter Temperature (C)"
"07/07/12 10:46:12","160.5089","181.4","216.42","830","60.03","37"
"07/07/12 10:51:11","160.5231","184.4","217.27","839","60.0","37"
"07/07/12 10:56:12","160.5377","187.8","217.51","852","60.03","37"
"07/07/12 11:01:13","160.5523","188.2","216.91","855","60.03","38"
"07/07/12 11:06:11","160.567","191.2","217.11","866","60.0","38"
"07/07/12 11:11:12","160.5819","191.9","216.48","872","60.0","38"
"07/07/12 11:16:12","160.5969","193.5","217.81","870","60.03","38"
"07/07/12 11:21:12","160.6119","192.7","217.29","877","60.0","39"
"07/07/12 11:26:11","160.6271","195.3","217.71","885","60.0","38"
"07/07/12 11:31:12","160.6423","195.4","217.35","885","60.0","38"
"07/07/12 11:36:12","160.6575","194.7","217.2","887","60.03","38"
"07/07/12 11:41:11","160.6726","194.5","216.42","878","60.0","39"
"07/07/12 11:46:11","160.6879","195.0","216.92","888","60.0","39"
"07/07/12 11:51:11","160.703","195.1","217.26","888","60.07","39"
"07/07/12 11:56:12","160.7183","195.3","216.75","888","60.03","38"
"07/07/12 12:01:13","160.7335","195.4","216.88","882","60.03","38"
"07/07/12 12:06:11","160.7486","195.4","217.44","880","60.03","39"
"07/07/12 12:11:13","160.7639","194.8","216.99","882","60.03","39"
"07/07/12 12:16:11","160.779","196.1","216.97","873","60.0","38"
"07/07/12 12:21:11","160.7942","195.3","217.48","889","60.0","39"
"07/07/12 12:26:12","160.8095","195.1","218.22","879","60.0","39"
"07/07/12 12:31:12","160.8246","195.0","217.56","882","60.03","39"
"07/07/12 12:36:11","160.8398","195.5","217.57","880","60.03","39"
"07/07/12 12:41:12","160.855","195.0","217.61","886","60.03","39"
"07/07/12 12:46:12","160.8703","196.0","217.3","888","60.03","39"
"07/07/12 12:51:13","160.8855","194.0","216.43","884","60.03","39"
"07/07/12 12:56:11","160.9006","194.6","217.34","880","60.03","39"
"07/07/12 13:01:13","160.9159","196.0","216.79","894","60.03","40"
"07/07/12 13:06:12","160.9311","195.1","217.2","884","60.0","40"
"07/07/12 13:11:13","160.9462","195.4","216.91","887","60.03","40"
"07/07/12 13:16:11","160.9614","194.5","217.25","882","60.03","40"
"07/07/12 13:21:11","160.9766","195.3","216.72","879","60.03","40"
"07/07/12 13:26:13","160.9919","194.8","216.67","883","60.03","40"
"07/07/12 13:31:13","161.007","195.4","217.4","885","60.0","40"
"07/07/12 13:36:11","161.0222","195.0","216.35","884","60.03","40"
"07/07/12 13:41:12","161.0374","193.9","216.57","880","60.03","40"
"07/07/12 13:46:13","161.0527","194.6","216.31","882","60.0","41"
"07/07/12 13:51:11","161.0677","195.6","216.5","890","60.03","41"
"07/07/12 13:56:12","161.083","194.9","216.85","882","60.03","41"
"07/07/12 14:01:12","161.0981","194.6","217.77","881","60.07","41"
"07/07/12 14:06:13","161.1133","193.1","216.98","877","60.03","41"
"07/07/12 14:11:11","161.1281","191.4","216.47","877","60.03","41"
"07/07/12 14:16:13","161.143","188.7","216.61","857","60.03","41"
"07/07/12 14:21:11","161.1575","187.2","215.89","853","60.03","41"
"07/07/12 14:26:12","161.1721","186.1","216.51","851","60.03","41"
"07/07/12 14:31:13","161.1865","182.5","216.84","837","60.03","41"
"07/07/12 14:36:11","161.2006","181.2","216.82","824","60.03","41"
"07/07/12 14:41:11","161.2146","179.6","217.71","815","60.03","41"
"07/07/12 14:46:12","161.2284","175.9","217.19","803","60.0","41"
"07/07/12 14:51:12","161.242","173.2","216.01","797","60.03","41"
"07/07/12 14:56:13","161.2555","171.1","217.01","779","60.0","41"
"07/07/12 15:01:12","161.2686","169.5","217.37","774","60.03","41"
"07/07/12 15:06:11","161.2817","166.2","216.55","762","60.03","41"
"07/07/12 15:11:12","161.2945","164.2","216.28","757","60.0","42"
"07/07/12 15:16:12","161.3072","159.2","216.68","736","60.03","42"
"07/07/12 15:21:12","161.3195","156.9","215.38","726","60.03","42"
"07/07/12 15:26:13","161.3317","155.0","216.15","716","60.0","41"
"07/07/12 15:31:12","161.3436","152.6","215.36","703","60.03","42"
"07/07/12 15:36:12","161.3554","149.4","214.99","692","60.03","42"
"07/07/12 15:41:13","161.3668","146.1","215.39","678","60.03","42"
"07/07/12 15:46:12","161.3781","142.4","214.57","667","60.0","42"
"07/07/12 15:51:12","161.3891","140.1","216.0","653","60.03","41"
"07/07/12 15:56:12","161.3998","136.5","215.98","638","60.0","41"
"07/07/12 16:01:13","161.4103","132.5","216.28","615","60.03","41"
"07/07/12 16:06:11","161.4204","129.1","215.68","606","60.03","41"
"07/07/12 16:11:12","161.4304","125.4","216.01","592","60.07","41"
"07/07/12 16:16:13","161.44","122.3","214.77","580","60.03","41"
"07/07/12 16:21:11","161.4494","119.1","214.64","561","60.03","40"
"07/07/12 16:26:13","161.4585","115.1","214.66","550","60.03","40"
"07/07/12 16:31:11","161.4673","111.6","214.1","536","60.03","40"
"07/07/12 16:36:12","161.4759","108.3","214.73","513","60.03","40"
"07/07/12 16:41:12","161.4841","103.8","214.79","497","60.03","40"
"07/07/12 16:46:12","161.4921","100.6","214.56","483","60.0","40"
"07/07/12 16:51:11","161.4997","96.6","214.15","466","60.03","40"
"07/07/12 16:56:12","161.5072","93.4","213.94","452","60.0","39"
"07/07/12 17:01:12","161.5142","88.9","214.56","434","60.0","39"
"07/07/12 17:06:12","161.521","84.6","215.03","410","60.03","39"
"07/07/12 17:11:13","161.5274","80.4","214.72","399","60.03","38"
"07/07/12 17:16:11","161.5335","76.4","213.4","376","60.0","38"
"07/07/12 17:21:12","161.5393","72.4","214.37","363","60.0","38"
"07/07/12 17:26:12","161.5447","68.1","215.13","343","60.03","38"
"07/07/12 17:31:13","161.5498","63.7","214.16","324","60.0","38"
"07/07/12 17:36:11","161.5544","45.4","213.07","299","60.03","38"
"07/07/12 17:41:11","161.5582","56.0","214.24","134","60.03","37"
"07/07/12 17:46:11","161.5621","41.4","213.58","394","60.03","37"
"07/07/12 17:51:12","161.5659","48.1","213.34","186","60.07","37"
"07/07/12 17:56:12","161.5695","47.8","214.03","370","60.03","37"
"07/07/12 18:01:11","161.5726","37.2","213.88","313","60.03","36"
"07/07/12 18:06:11","161.5756","40.5","214.04","85","60.03","36"
"07/07/12 18:11:12","161.5782","35.9","214.27","280","60.03","35"
"07/07/12 18:16:11","161.5805","31.6","213.64","104","60.03","35"
"07/07/12 18:21:11","161.5825","24.3","214.02","112","60.03","35"
"07/07/12 18:26:13","161.5843","19.6","213.58","117","60.03","34"
"07/07/12 18:31:12","161.5858","13.7","213.71","9","60.0","34"
"07/07/12 18:36:11","161.5871","22.6","213.54","207","60.03","34"
"07/07/12 18:41:12","161.5882","16.3","213.25","117","60.03","33"
"07/07/12 18:46:12","161.5891","10.9","213.35","6","60.07","33"
"07/07/12 18:51:11","161.5899","14.3","212.45","30","60.03","32"
"07/07/12 18:56:13","161.5906","4.7","213.41","201","60.03","32"
"07/07/12 19:01:12","161.5911","0.0","212.62","0","60.0","32"
"07/07/12 19:06:12","161.5917","13.8","213.2","1","60.03","32"
"07/07/12 19:11:13","161.5922","0.0","213.74","0","60.03","31"
"07/07/12 19:16:11","161.5927","15.1","213.82","16","60.03","31"
"07/07/12 19:21:13","161.5931","0.0","213.2","0","60.03","30"
"07/07/12 19:26:11","161.5936","13.0","213.8","26","60.03","30"
"07/07/12 19:31:11","161.594","0.0","213.76","0","60.03","30"
"07/07/12 19:36:13","161.5944","6.4","212.71","161","60.07","29"
"07/07/12 19:41:11","161.5947","0.0","213.07","0","60.03","29"
"07/07/12 19:46:12","161.595","0.0","212.66","167","60.03","29"
"07/07/12 19:51:11","161.5953","0.0","213.31","0","60.0","29"
"07/07/12 19:56:12","161.5956","0.0","212.69","0","60.0","28"
"07/07/12 20:01:12","161.5958","5.9","212.51","144","60.0","28"
"07/08/12 06:26:12","161.5971","1.4","213.09","0","60.03","19"
"07/08/12 06:31:12","161.5976","13.6","213.24","0","60.0","19"
"07/08/12 06:36:12","161.598","0.0","213.19","0","60.03","19"
"07/08/12 06:41:12","161.5985","8.0","213.2","89","60.03","19"
"07/08/12 06:46:12","161.5991","12.6","213.23","117","60.0","19"
"07/08/12 06:51:12","161.5998","0.0","212.56","92","60.03","20"
"07/08/12 06:56:12","161.6006","9.7","211.78","0","60.03","20"
"07/08/12 07:01:12","161.6013","14.4","212.41","6","60.0","20"
"07/08/12 07:06:11","161.6022","12.5","213.07","38","60.03","20"
"07/08/12 07:11:11","161.6041","43.9","213.48","162","60.03","20"
"07/08/12 07:16:12","161.6071","46.7","212.82","349","60.03","21"
"07/08/12 07:21:12","161.6104","30.7","213.4","120","60.03","22"
"07/08/12 07:26:13","161.6141","45.2","213.46","365","60.0","23"
"07/08/12 07:31:11","161.6181","41.6","213.43","230","60.03","23"
"07/08/12 07:36:12","161.6222","65.1","215.42","100","60.0","24"
"07/08/12 07:41:12","161.6265","61.3","215.18","392","60.0","24"
"07/08/12 07:46:12","161.6313","67.1","214.38","339","60.03","25"
"07/08/12 07:51:13","161.6367","70.9","215.64","355","60.0","25"
"07/08/12 07:56:11","161.6423","75.0","215.45","373","60.07","26"
"07/08/12 08:01:12","161.6484","79.4","215.83","388","60.03","26"
"07/08/12 08:06:13","161.6547","83.4","215.29","410","60.0","27"
"07/08/12 08:11:12","161.6614","87.7","215.67","425","60.0","27"
"07/08/12 08:16:12","161.6683","91.5","215.56","444","60.03","28"
"07/08/12 08:21:35","161.6762","96.2","214.96","465","60.0","28"
"07/08/12 08:26:12","161.6833","99.7","214.91","479","60.07","29"
"07/08/12 08:31:12","161.6913","104.1","215.0","495","60.0","29"
"07/08/12 08:36:11","161.6994","107.8","215.15","516","60.03","30"
"07/08/12 08:41:12","161.708","111.5","215.19","528","60.03","30"
"07/08/12 08:46:13","161.7169","114.6","215.02","548","60.0","30"
"07/08/12 08:51:12","161.726","118.7","215.87","561","60.0","31"
"07/08/12 08:56:12","161.7354","122.4","215.42","577","60.0","31"
"07/08/12 09:01:12","161.7451","125.3","215.16","592","60.03","32"
"07/08/12 09:06:13","161.7549","128.2","214.9","604","60.03","32"
"07/08/12 09:11:12","161.765","131.5","215.12","620","60.03","33"
"07/08/12 09:16:12","161.7753","134.2","215.63","630","60.07","34"
"07/08/12 09:21:12","161.7859","137.6","215.2","643","60.0","34"
"07/08/12 09:26:12","161.7967","140.4","216.46","654","60.03","35"
"07/08/12 09:31:13","161.8077","142.6","215.47","661","60.07","36"
"07/08/12 09:36:11","161.8188","145.3","215.81","676","60.0","37"
"07/08/12 09:41:13","161.8303","148.3","216.35","691","60.03","37"
"07/08/12 09:46:12","161.842","150.6","216.05","700","60.0","38"
"07/08/12 09:51:13","161.8539","153.7","215.2","712","60.03","38"
"07/08/12 09:56:12","161.8658","156.2","216.16","722","60.03","39"
"07/08/12 10:01:12","161.8782","161.5","215.91","744","60.03","40"
"07/08/12 10:06:12","161.8908","163.7","216.93","751","60.0","40"
"07/08/12 10:11:12","161.9037","166.4","216.24","765","60.03","41"
"07/08/12 10:16:12","161.9168","171.6","217.48","781","60.0","41"
"07/08/12 10:21:13","161.9302","172.1","217.45","780","60.0","41"
"07/08/12 10:26:13","161.9436","173.1","217.58","787","60.0","41"
"07/08/12 10:31:12","161.9571","174.7","217.24","795","60.0","42"
"07/08/12 10:36:12","161.9708","178.9","216.14","814","60.03","42"
"07/08/12 10:41:13","161.985","183.3","217.93","828","60.03","42"
"07/08/12 10:46:13","161.9993","184.3","217.15","838","60.03","41"
"07/08/12 10:51:13","162.0137","185.5","216.55","849","60.0","41"
"07/08/12 10:56:13","162.0282","187.5","217.58","855","60.03","41"
"07/08/12 11:01:12","162.0428","188.8","217.12","850","60.03","41"
"07/08/12 11:06:12","162.0576","190.2","217.19","866","60.03","41"
"07/08/12 11:11:11","162.0724","191.0","217.17","871","60.0","41"
"07/08/12 11:16:13","162.0873","192.7","217.06","874","60.0","41"
"07/08/12 11:21:11","162.1024","194.6","218.3","874","60.03","41"
"07/08/12 11:26:12","162.1175","195.3","218.4","881","60.03","41"
"07/08/12 11:31:12","162.1327","195.0","217.9","877","60.0","41"
"07/08/12 11:36:12","162.1479","195.8","217.72","873","60.03","41"
"07/08/12 11:41:13","162.1631","195.3","217.74","880","60.03","41"
"07/08/12 11:46:12","162.1783","194.6","217.67","879","60.0","41"
"07/08/12 11:51:13","162.1935","194.8","216.86","888","60.0","41"
"07/08/12 11:56:11","162.2086","195.0","216.65","877","60.03","41"
"07/08/12 12:01:12","162.2238","194.6","217.06","890","60.03","41"
"07/08/12 12:06:13","162.2391","195.2","217.03","885","60.0","41"
"07/08/12 12:11:12","162.2543","196.0","217.56","886","60.0","41"
"07/08/12 12:16:13","162.2695","195.4","217.27","881","60.0","41"
"07/08/12 12:21:11","162.2846","194.3","217.28","876","60.0","41"
"07/08/12 12:26:12","162.2998","195.3","216.57","885","60.0","41"
"07/08/12 12:31:13","162.3151","195.2","217.51","883","60.03","41"
"07/08/12 12:36:12","162.3302","194.7","216.24","889","60.03","41"
"07/08/12 12:41:13","162.3455","194.9","217.09","883","60.03","41"
"07/08/12 12:46:11","162.3606","194.8","216.99","888","60.0","41"
"07/08/12 12:51:12","162.3758","194.6","216.5","888","60.0","41"
"07/08/12 12:56:12","162.391","195.4","216.44","885","60.03","40"
"07/08/12 13:01:13","162.4063","194.7","217.21","889","60.03","40"
"07/08/12 13:06:13","162.4215","195.4","218.03","878","60.0","40"
"07/08/12 13:11:13","162.4367","195.3","217.17","886","60.03","40"
"07/08/12 13:16:11","162.4518","195.4","217.28","882","60.03","40"
"07/08/12 13:21:13","162.4671","193.6","216.58","880","60.03","40"
"07/08/12 13:26:13","162.4823","194.7","216.57","881","60.0","40"
"07/08/12 13:31:12","162.4974","195.0","216.95","884","60.03","40"
"07/08/12 13:36:13","162.5126","195.1","216.32","887","60.03","40"
"07/08/12 13:41:12","162.5278","194.6","216.62","883","60.0","41"
"07/08/12 13:46:13","162.543","194.6","217.02","884","60.0","41"
"07/08/12 13:51:13","162.5582","192.6","216.39","881","60.0","42"
"07/08/12 13:56:12","162.5731","192.6","217.79","872","60.03","42"
"07/08/12 14:01:13","162.5882","191.9","217.13","877","60.03","42"
"07/08/12 14:06:13","162.6031","189.8","216.85","866","60.03","42"
"07/08/12 14:11:12","162.6178","188.8","216.62","860","60.03","42"
"07/08/12 14:16:13","162.6325","186.9","217.56","850","60.0","42"
"07/08/12 14:21:11","162.6469","184.5","216.56","848","60.03","42"
"07/08/12 14:26:12","162.6613","184.6","216.64","837","60.0","42"
"07/08/12 14:31:13","162.6756","180.8","216.54","826","60.0","42"
"07/08/12 14:36:12","162.6896","179.8","217.61","821","60.03","42"
"07/08/12 14:41:12","162.7036","179.1","218.13","812","60.03","42"
"07/08/12 14:46:13","162.7175","176.0","217.15","802","60.0","42"
"07/08/12 14:51:13","162.7311","173.8","216.57","796","60.03","42"
"07/08/12 14:56:13","162.7445","171.2","215.82","782","60.03","42"
"07/08/12 15:01:12","162.7577","169.5","216.18","777","60.0","41"
"07/08/12 15:06:12","162.7709","166.4","216.77","766","60.03","41"
"07/08/12 15:11:13","162.7838","164.0","216.85","751","60.0","41"
"07/08/12 15:16:13","162.7965","161.0","216.4","742","60.03","41"
"07/08/12 15:21:13","162.8089","158.3","215.9","720","60.03","40"
"07/08/12 15:26:12","162.8211","155.1","216.61","710","60.03","40"
"07/08/12 15:31:12","162.833","152.7","216.94","704","60.03","40"
"07/08/12 15:36:12","162.8448","149.8","216.17","691","60.03","40"
"07/08/12 15:41:11","162.8564","146.7","216.59","681","60.03","40"
"07/08/12 15:46:12","162.8677","143.5","216.68","666","60.03","39"
"07/08/12 15:51:11","162.8788","140.3","216.94","648","60.0","39"
"07/08/12 15:56:13","162.8896","137.1","216.77","639","60.03","39"
"07/08/12 16:01:13","162.9002","134.2","216.61","622","59.96","38"
"07/08/12 16:06:13","162.9105","130.1","217.21","607","60.0","38"
"07/08/12 16:11:13","162.9205","127.6","216.92","592","60.0","38"
"07/08/12 16:16:13","162.9303","123.5","216.1","582","60.03","38"
"07/08/12 16:21:12","162.9398","119.7","216.43","567","60.03","38"
"07/08/12 16:26:13","162.9489","117.0","215.4","548","60.0","37"
"07/08/12 16:31:12","162.9578","112.5","215.26","536","60.03","37"
"07/08/12 16:36:12","162.9664","109.2","215.5","516","60.03","37"
"07/08/12 16:41:12","162.9747","104.9","214.4","502","60.0","36"
"07/08/12 16:46:12","162.9827","101.0","214.57","490","60.03","36"
"07/08/12 16:51:13","162.9905","97.1","215.08","467","60.0","36"
"07/08/12 16:56:13","162.9978","93.0","214.73","454","60.0","36"
"07/08/12 17:01:13","163.0049","89.2","214.15","434","60.0","35"
"07/08/12 17:06:12","163.0117","86.1","214.18","417","60.0","35"
"07/08/12 17:11:13","163.0183","81.2","214.77","398","60.03","34"
"07/08/12 17:16:12","163.0244","77.2","214.74","381","60.03","34"
"07/08/12 17:21:13","163.0303","73.4","214.99","367","60.03","33"
"07/08/12 17:26:12","163.0358","69.7","215.01","344","60.03","33"
"07/08/12 17:31:12","163.041","65.2","214.88","329","60.03","33"
"07/08/12 17:36:11","163.0457","54.0","214.37","132","60.03","32"
"07/08/12 17:41:12","163.0496","47.9","214.52","189","60.07","32"
"07/08/12 17:46:13","163.0535","44.7","214.43","101","60.07","32"
"07/08/12 17:51:12","163.0574","55.5","214.69","106","60.03","32"
"07/08/12 17:56:13","163.0609","38.7","213.42","186","60.0","32"
"07/08/12 18:01:13","163.0641","44.8","214.27","187","60.03","32"
"07/08/12 18:06:12","163.0671","37.0","214.91","143","60.0","32"
"07/08/12 18:11:12","163.0699","29.2","213.61","281","60.03","32"
"07/08/12 18:16:13","163.0722","25.0","213.29","126","60.03","31"
"07/08/12 18:21:12","163.0743","18.3","213.51","83","60.03","31"
"07/08/12 18:26:13","163.0762","21.5","212.99","30","60.0","31"
"07/08/12 18:31:13","163.0786","34.1","213.24","222","60.07","31"
"07/08/12 18:36:13","163.0808","31.8","214.47","253","60.03","31"
"07/08/12 18:41:13","163.0825","14.1","213.59","117","60.03","30"
"07/08/12 18:46:13","163.0836","12.6","213.73","9","60.03","29"
"07/08/12 18:51:12","163.0845","14.0","213.81","0","60.03","29"
"07/08/12 18:56:12","163.0852","15.2","213.57","2","60.03","28"
"07/08/12 19:01:13","163.0858","0.0","213.84","0","60.03","28"
"07/08/12 19:06:12","163.0863","14.9","213.58","0","60.03","27"
"07/08/12 19:11:12","163.0869","10.9","213.35","15","60.0","27"
"07/08/12 19:16:12","163.0874","11.0","212.92","32","60.03","27"
"07/08/12 19:21:12","163.088","14.5","213.23","5","60.03","27"
"07/08/12 19:26:13","163.0886","0.0","212.5","0","60.03","26"
"07/08/12 19:31:12","163.0891","3.3","213.0","239","60.0","26"
"07/08/12 19:36:12","163.0895","0.0","213.96","0","60.03","26"
"07/08/12 19:41:13","163.0899","0.0","213.31","0","60.03","26"
"07/08/12 19:46:12","163.0903","13.9","213.48","16","60.03","25"
"07/08/12 19:51:12","163.0906","12.0","213.17","30","60.0","25"
"07/08/12 19:56:12","163.0907","0.0","213.52","0","60.03","25"
"07/08/12 20:01:11","163.091","0.0","213.36","0","60.0","24"
"07/09/12 05:46:12","163.0917","0.0","214.6","0","60.03","17"
"07/09/12 05:51:12","163.0923","0.0","214.94","0","60.03","17"
"07/09/12 05:56:13","163.093","15.6","215.17","163","60.03","18"
"07/09/12 06:01:13","163.0937","0.0","215.17","0","60.07","18"
"07/09/12 06:06:13","163.0944","5.5","213.44","0","60.03","18"
"07/09/12 06:11:12","163.0951","13.8","214.15","1","60.03","18"
"07/09/12 06:16:12","163.0958","0.5","214.55","0","60.03","18"
"07/09/12 06:21:13","163.0964","4.8","214.09","0","60.03","19"
"07/09/12 06:26:13","163.0973","8.0","214.72","206","60.03","19"
"07/09/12 06:31:13","163.0983","13.1","212.03","6","60.0","19"
"07/09/12 06:36:13","163.0995","13.8","212.66","18","60.0","19"
"07/09/12 06:41:13","163.1008","12.2","215.26","68","60.03","20"
"07/09/12 06:46:14","163.1024","16.2","213.98","197","60.07","20"
"07/09/12 06:51:12","163.1042","15.6","213.28","21","60.03","21"
"07/09/12 06:56:14","163.1062","28.6","214.34","219","60.03","21"
"07/09/12 07:01:12","163.1078","27.4","214.35","41","60.0","22"
"07/09/12 07:06:14","163.1097","30.0","214.31","75","60.0","22"
"07/09/12 07:11:12","163.1125","34.1","213.63","115","60.03","23"
"07/09/12 07:16:13","163.1157","38.1","214.86","390","60.0","23"
"07/09/12 07:21:13","163.1194","50.7","213.86","86","60.0","23"
"07/09/12 07:26:13","163.1233","56.3","214.79","156","60.07","24"
"07/09/12 07:31:14","163.127","35.3","214.72","257","60.03","24"
"07/09/12 07:36:14","163.1302","52.7","213.45","347","60.03","25"
"07/09/12 07:41:13","163.1342","71.2","214.83","357","60.03","25"
"07/09/12 07:46:14","163.1385","50.9","213.64","386","60.03","25"
"07/09/12 07:51:12","163.1409","26.4","212.64","57","60.03","25"
"07/09/12 07:56:13","163.1459","79.8","214.43","395","60.0","26"
"07/09/12 08:01:12","163.152","85.0","213.56","421","60.03","26"
"07/09/12 08:06:12","163.158","76.3","214.42","380","60.0","27"
"07/09/12 08:11:12","163.1634","64.2","214.4","329","60.03","27"
"07/09/12 08:16:13","163.1683","75.0","215.64","376","60.0","28"
"07/09/12 08:21:12","163.1758","98.2","217.04","470","60.03","29"
"07/09/12 08:26:14","163.1836","101.2","217.07","483","60.0","29"
"07/09/12 08:31:13","163.1915","105.1","216.03","492","59.96","30"
"07/09/12 08:36:13","163.2","112.8","215.86","540","60.03","31"
"07/09/12 08:41:13","163.2093","126.5","214.56","596","60.03","32"
"07/09/12 08:46:12","163.2165","47.8","214.05","348","60.0","32"
"07/09/12 08:51:14","163.2218","110.4","215.02","528","60.03","32"
"07/09/12 08:56:13","163.2316","134.6","215.7","632","60.03","33"
"07/09/12 09:01:13","163.242","108.9","216.83","511","60.0","33"
"07/09/12 09:06:12","163.252","135.7","217.91","629","60.03","34"
"07/09/12 09:11:14","163.2626","137.1","216.05","637","60.03","34"
"07/09/12 09:16:13","163.2733","138.3","216.45","643","60.0","35"
"07/09/12 09:21:13","163.2841","139.9","216.43","648","60.03","36"
"07/09/12 09:26:12","163.2951","142.4","215.86","665","60.0","36"
"07/09/12 09:31:13","163.3063","143.2","216.13","665","60.03","37"
"07/09/12 09:36:12","163.3176","146.5","217.69","670","60.0","37"
"07/09/12 09:41:13","163.3292","149.9","217.2","691","60.03","38"
"07/09/12 09:46:13","163.341","152.8","217.04","705","60.03","38"
"07/09/12 09:51:12","163.3529","156.3","217.05","720","60.03","38"
"07/09/12 09:56:12","163.3652","159.4","217.0","731","60.0","39"
"07/09/12 10:01:12","163.3778","163.3","216.58","753","60.07","39"
"07/09/12 10:06:13","163.3906","165.8","216.39","758","60.0","39"
"07/09/12 10:11:12","163.4036","169.2","217.38","770","60.0","40"
"07/09/12 10:16:12","163.4172","192.5","218.59","871","60.03","40"
"07/09/12 10:21:14","163.4272","72.6","215.33","359","60.03","39"
"07/09/12 10:26:13","163.4318","33.8","215.61","177","60.03","37"
"07/09/12 10:31:14","163.4341","23.9","214.57","38","60.03","35"
"07/09/12 10:36:13","163.4361","29.6","214.97","219","60.03","33"
"07/09/12 10:41:12","163.4392","48.5","214.95","330","60.0","32"
"07/09/12 10:46:13","163.4494","104.2","213.81","501","60.03","32"
"07/09/12 10:51:13","163.462","191.3","215.18","874","60.0","32"
"07/09/12 10:56:13","163.4721","168.8","218.59","770","60.03","32"
"07/09/12 11:01:12","163.4822","84.3","215.84","409","60.03","32"
"07/09/12 11:06:12","163.4923","97.9","215.7","470","60.0","32"
"07/09/12 11:11:13","163.5","68.5","214.55","343","60.0","31"
"07/09/12 11:16:13","163.5036","42.4","214.24","174","60.03","30"
"07/09/12 11:21:12","163.5073","92.2","215.48","441","60.0","29"
"07/09/12 11:26:12","163.5197","192.0","218.13","873","60.03","30"
"07/09/12 11:31:13","163.5346","196.0","218.74","878","60.0","31"
"07/09/12 11:36:14","163.5499","193.1","216.58","890","60.0","32"
"07/09/12 11:41:12","163.5605","74.9","214.23","371","60.0","32"
"07/09/12 11:46:13","163.5656","160.1","216.08","739","60.03","32"
"07/09/12 11:51:13","163.5738","107.4","214.1","519","60.03","31"
"07/09/12 11:56:13","163.5861","122.5","214.73","580","60.03","32"
"07/09/12 12:01:14","163.5943","104.8","214.84","499","60.03","32"
"07/09/12 12:06:12","163.6041","191.8","217.44","875","60.03","32"
"07/09/12 12:11:12","163.6187","172.7","216.33","791","60.0","33"
"07/09/12 12:16:13","163.6335","194.6","216.82","891","60.03","34"
"07/09/12 12:21:12","163.6484","194.7","217.0","881","60.0","35"
"07/09/12 12:26:12","163.6629","195.4","215.39","878","60.03","36"
"07/09/12 12:31:12","163.6779","194.9","216.47","891","60.0","37"
"07/09/12 12:36:13","163.6932","193.8","217.49","858","60.03","38"
"07/09/12 12:41:12","163.701","42.8","213.9","293","60.0","37"
"07/09/12 12:46:13","163.7049","47.4","214.04","358","60.03","36"
"07/09/12 12:51:12","163.7111","95.3","214.27","465","60.03","36"
"07/09/12 12:56:13","163.7242","191.7","216.95","881","60.03","36"